Time,TemperatureF,DewpointF,PressureIn,WindDirection,WindDirectionDegrees,WindSpeedMPH,WindSpeedGustMPH,Humidity,HourlyPrecipIn,Conditions,Clouds,dailyrainin,SoftwareType,DateUTC
2013-03-13 00:04:00,42.8,12.0,30.03,NNW,328,0.0,0.0,28,0.00,,,0.00,VWS V14.01,2013-03-13 07:04:00,
2013-03-13 00:09:00,42.8,12.0,30.03,South,190,0.0,0.0,28,0.00,,,0.00,VWS V14.01,2013-03-13 07:09:00,
2013-03-13 00:14:00,43.0,12.1,30.03,West,260,0.0,0.0,28,0.00,,,0.00,VWS V14.01,2013-03-13 07:14:00,
2013-03-13 00:20:00,43.0,12.1,30.03,SW,226,0.0,0.0,28,0.00,,,0.00,VWS V14.01,2013-03-13 07:20:00,
2013-03-13 00:26:00,43.0,12.1,30.03,SW,226,0.0,0.0,28,0.00,,,0.00,VWS V14.01,2013-03-13 07:26:00,
2013-03-13 00:32:00,43.0,12.1,30.03,NW,314,0.0,0.0,28,0.00,,,0.00,VWS V14.01,2013-03-13 07:32:00,
2013-03-13 00:37:00,43.0,12.1,30.03,NW,314,0.0,0.0,28,0.00,,,0.00,VWS V14.01,2013-03-13 07:37:00,
2013-03-13 00:43:00,42.8,12.0,30.03,NW,319,0.0,0.0,28,0.00,,,0.00,VWS V14.01,2013-03-13 07:43:00,
2013-03-13 00:49:00,43.0,12.1,30.03,NW,326,2.7,2.7,28,0.00,,,0.00,VWS V14.01,2013-03-13 07:49:00,
2013-03-13 00:55:00,43.0,12.1,30.03,NW,319,0.0,0.0,28,0.00,,,0.00,VWS V14.01,2013-03-13 07:55:00,
2013-03-13 01:01:00,43.0,12.1,30.03,NW,319,0.0,0.0,28,0.00,,,0.00,VWS V14.01,2013-03-13 08:01:00,
2013-03-13 01:08:00,43.2,12.3,30.03,ENE,73,3.1,3.1,28,0.00,,,0.00,VWS V14.01,2013-03-13 08:08:00,
2013-03-13 01:13:00,43.3,12.4,30.03,NW,324,0.0,4.5,28,0.00,,,0.00,VWS V14.01,2013-03-13 08:13:00,
2013-03-13 01:19:00,43.5,12.6,30.03,NW,324,0.0,0.0,28,0.00,,,0.00,VWS V14.01,2013-03-13 08:19:00,
2013-03-13 01:25:00,43.7,12.8,30.03,NW,324,0.0,0.0,28,0.00,,,0.00,VWS V14.01,2013-03-13 08:25:00,
2013-03-13 01:31:00,43.5,12.6,30.03,NW,310,0.0,0.0,28,0.00,,,0.00,VWS V14.01,2013-03-13 08:31:00,
2013-03-13 01:37:00,43.3,12.4,30.03,SW,216,0.0,0.0,28,0.00,,,0.00,VWS V14.01,2013-03-13 08:37:00,
2013-03-13 01:42:00,43.3,12.4,30.03,West,259,2.2,2.2,28,0.00,,,0.00,VWS V14.01,2013-03-13 08:42:00,
2013-03-13 01:48:00,43.2,12.3,30.03,WSW,250,0.0,0.0,28,0.00,,,0.00,VWS V14.01,2013-03-13 08:48:00,
2013-03-13 01:53:00,43.2,12.3,30.03,West,281,0.0,0.0,28,0.00,,,0.00,VWS V14.01,2013-03-13 08:53:00,
2013-03-13 01:59:00,43.0,12.1,30.03,WNW,302,0.0,0.0,28,0.00,,,0.00,VWS V14.01,2013-03-13 08:59:00,
2013-03-13 02:04:00,43.0,12.1,30.03,NW,317,0.0,0.0,28,0.00,,,0.00,VWS V14.01,2013-03-13 09:04:00,
2013-03-13 02:09:00,43.2,12.3,30.03,NW,323,0.0,0.0,28,0.00,,,0.00,VWS V14.01,2013-03-13 09:09:00,
2013-03-13 02:14:00,43.0,12.1,30.03,West,280,2.2,2.2,28,0.00,,,0.00,VWS V14.01,2013-03-13 09:14:00,
2013-03-13 02:20:00,43.0,12.1,30.03,West,278,2.7,2.7,28,0.00,,,0.00,VWS V14.01,2013-03-13 09:20:00,
2013-03-13 02:26:00,43.2,12.3,30.03,West,278,2.7,2.7,28,0.00,,,0.00,VWS V14.01,2013-03-13 09:26:00,
2013-03-13 02:31:00,43.0,12.1,30.03,WNW,284,0.0,0.0,28,0.00,,,0.00,VWS V14.01,2013-03-13 09:31:00,
2013-03-13 02:37:00,42.8,12.0,30.03,NW,308,0.0,0.0,28,0.00,,,0.00,VWS V14.01,2013-03-13 09:37:00,
2013-03-13 02:42:00,42.8,12.0,30.03,NW,308,0.0,0.0,28,0.00,,,0.00,VWS V14.01,2013-03-13 09:42:00,
2013-03-13 02:47:00,42.6,12.6,30.03,NW,308,0.0,0.0,29,0.00,,,0.00,VWS V14.01,2013-03-13 09:47:00,
2013-03-13 02:53:00,42.6,12.6,30.06,NW,308,3.1,3.1,29,0.00,,,0.00,VWS V14.01,2013-03-13 09:53:00,
2013-03-13 02:58:00,42.6,12.6,30.06,NNW,332,0.0,0.0,29,0.00,,,0.00,VWS V14.01,2013-03-13 09:58:00,
2013-03-13 03:04:00,42.6,12.6,30.06,NW,315,0.0,0.0,29,0.00,,,0.00,VWS V14.01,2013-03-13 10:04:00,
2013-03-13 03:09:00,42.6,12.6,30.06,NW,315,0.0,0.0,29,0.00,,,0.00,VWS V14.01,2013-03-13 10:09:00,
2013-03-13 03:15:00,42.6,12.6,30.06,NNW,328,0.0,0.0,29,0.00,,,0.00,VWS V14.01,2013-03-13 10:15:00,
2013-03-13 03:22:00,42.8,12.0,30.06,NNW,330,0.0,4.0,28,0.00,,,0.00,VWS V14.01,2013-03-13 10:22:00,
2013-03-13 03:27:00,42.6,12.6,30.06,NNW,330,0.0,0.0,29,0.00,,,0.00,VWS V14.01,2013-03-13 10:27:00,
2013-03-13 03:32:00,42.8,12.0,30.06,NNW,330,0.0,0.0,28,0.00,,,0.00,VWS V14.01,2013-03-13 10:32:00,
2013-03-13 03:37:00,42.6,12.6,30.06,NNW,330,0.0,0.0,29,0.00,,,0.00,VWS V14.01,2013-03-13 10:37:00,
2013-03-13 03:43:00,42.4,12.4,30.06,NNW,330,0.0,0.0,29,0.00,,,0.00,VWS V14.01,2013-03-13 10:43:00,
2013-03-13 03:48:00,42.4,12.4,30.06,NNW,330,0.0,0.0,29,0.00,,,0.00,VWS V14.01,2013-03-13 10:48:00,
2013-03-13 03:54:00,42.3,12.3,30.06,NNW,330,0.0,0.0,29,0.00,,,0.00,VWS V14.01,2013-03-13 10:54:00,
2013-03-13 04:00:00,42.3,12.3,30.06,West,265,0.0,3.6,29,0.00,,,0.00,VWS V14.01,2013-03-13 11:00:00,
2013-03-13 04:05:00,42.3,12.3,30.06,NNW,327,0.0,0.0,29,0.00,,,0.00,VWS V14.01,2013-03-13 11:05:00,
2013-03-13 04:12:00,42.3,12.3,30.06,West,270,3.6,3.6,29,0.00,,,0.00,VWS V14.01,2013-03-13 11:12:00,
2013-03-13 04:17:00,42.3,12.3,30.06,WSW,253,2.7,2.7,29,0.00,,,0.00,VWS V14.01,2013-03-13 11:17:00,
2013-03-13 04:22:00,42.1,12.1,30.06,West,260,0.0,0.0,29,0.00,,,0.00,VWS V14.01,2013-03-13 11:22:00,
2013-03-13 04:27:00,42.3,12.3,30.06,West,260,0.0,0.0,29,0.00,,,0.00,VWS V14.01,2013-03-13 11:27:00,
2013-03-13 04:33:00,42.3,12.3,30.06,West,260,0.0,0.0,29,0.00,,,0.00,VWS V14.01,2013-03-13 11:33:00,
2013-03-13 04:39:00,42.1,12.1,30.06,SW,231,0.0,0.0,29,0.00,,,0.00,VWS V14.01,2013-03-13 11:39:00,
2013-03-13 04:44:00,42.1,12.1,30.06,SW,231,0.0,0.0,29,0.00,,,0.00,VWS V14.01,2013-03-13 11:44:00,
2013-03-13 04:50:00,41.9,12.0,30.06,WSW,244,0.0,0.0,29,0.00,,,0.00,VWS V14.01,2013-03-13 11:50:00,
2013-03-13 04:55:00,41.9,12.0,30.06,SW,236,2.7,2.7,29,0.00,,,0.00,VWS V14.01,2013-03-13 11:55:00,
2013-03-13 05:01:00,41.7,11.8,30.06,West,265,0.0,0.0,29,0.00,,,0.00,VWS V14.01,2013-03-13 12:01:00,
2013-03-13 05:07:00,41.4,11.5,30.06,SSW,207,0.0,0.0,29,0.00,,,0.00,VWS V14.01,2013-03-13 12:07:00,
2013-03-13 05:12:00,41.4,11.5,30.06,SSW,207,0.0,0.0,29,0.00,,,0.00,VWS V14.01,2013-03-13 12:12:00,
2013-03-13 05:17:00,41.5,11.7,30.06,NW,310,0.0,0.0,29,0.00,,,0.00,VWS V14.01,2013-03-13 12:17:00,
2013-03-13 05:22:00,41.7,11.8,30.06,NW,310,0.0,0.0,29,0.00,,,0.00,VWS V14.01,2013-03-13 12:22:00,
2013-03-13 05:28:00,41.9,12.0,30.06,West,265,0.0,0.0,29,0.00,,,0.00,VWS V14.01,2013-03-13 12:28:00,
2013-03-13 05:33:00,41.9,12.0,30.06,WSW,255,0.0,0.0,29,0.00,,,0.00,VWS V14.01,2013-03-13 12:33:00,
2013-03-13 05:38:00,41.7,11.8,30.06,WSW,255,0.0,0.0,29,0.00,,,0.00,VWS V14.01,2013-03-13 12:38:00,
2013-03-13 05:44:00,41.9,12.0,30.06,WSW,246,0.0,0.0,29,0.00,,,0.00,VWS V14.01,2013-03-13 12:44:00,
2013-03-13 05:50:00,41.7,11.8,30.06,WNW,283,2.2,2.2,29,0.00,,,0.00,VWS V14.01,2013-03-13 12:50:00,
2013-03-13 05:55:00,41.9,12.0,30.06,WNW,283,2.2,2.2,29,0.00,,,0.00,VWS V14.01,2013-03-13 12:55:00,
2013-03-13 06:00:00,41.5,11.7,30.06,West,281,0.0,0.0,29,0.00,,,0.00,VWS V14.01,2013-03-13 13:00:00,
2013-03-13 06:06:00,41.5,11.7,30.06,West,281,0.0,0.0,29,0.00,,,0.00,VWS V14.01,2013-03-13 13:06:00,
2013-03-13 06:11:00,41.4,11.5,30.06,West,280,0.0,0.0,29,0.00,,,0.00,VWS V14.01,2013-03-13 13:11:00,
2013-03-13 06:16:00,41.5,11.7,30.06,NW,317,0.0,0.0,29,0.00,,,0.00,VWS V14.01,2013-03-13 13:16:00,
2013-03-13 06:21:00,41.7,11.8,30.06,NW,318,0.0,0.0,29,0.00,,,0.00,VWS V14.01,2013-03-13 13:21:00,
2013-03-13 06:27:00,41.5,11.7,30.06,NW,318,0.0,0.0,29,0.00,,,0.00,VWS V14.01,2013-03-13 13:27:00,
2013-03-13 06:32:00,41.5,11.7,30.06,NW,317,3.6,3.6,29,0.00,,,0.00,VWS V14.01,2013-03-13 13:32:00,
2013-03-13 06:38:00,41.7,11.8,30.06,North,10,0.0,0.0,29,0.00,,,0.00,VWS V14.01,2013-03-13 13:38:00,
2013-03-13 06:43:00,41.9,12.0,30.06,NNW,334,0.0,0.0,29,0.00,,,0.00,VWS V14.01,2013-03-13 13:43:00,
2013-03-13 06:49:00,42.1,12.1,30.06,NNW,328,0.0,0.0,29,0.00,,,0.00,VWS V14.01,2013-03-13 13:49:00,
2013-03-13 06:55:00,42.1,12.1,30.06,NNW,328,0.0,0.0,29,0.00,,,0.00,VWS V14.01,2013-03-13 13:55:00,
2013-03-13 07:00:00,42.1,12.1,30.06,NNW,328,0.0,0.0,29,0.00,,,0.00,VWS V14.01,2013-03-13 14:00:00,
2013-03-13 07:05:00,42.1,12.1,30.06,NNW,328,0.0,0.0,29,0.00,,,0.00,VWS V14.01,2013-03-13 14:05:00,
2013-03-13 07:11:00,42.1,12.1,30.06,NNW,328,2.2,2.2,29,0.00,,,0.00,VWS V14.01,2013-03-13 14:11:00,
2013-03-13 07:16:00,42.1,12.1,30.06,NNW,328,0.0,0.0,29,0.00,,,0.00,VWS V14.01,2013-03-13 14:16:00,
2013-03-13 07:22:00,42.1,12.1,30.06,NW,317,0.0,4.0,29,0.00,,,0.00,VWS V14.01,2013-03-13 14:22:00,
2013-03-13 07:27:00,42.1,12.1,30.06,NW,317,0.0,0.0,29,0.00,,,0.00,VWS V14.01,2013-03-13 14:27:00,
2013-03-13 07:32:00,42.1,12.1,30.06,NW,317,0.0,0.0,29,0.00,,,0.00,VWS V14.01,2013-03-13 14:32:00,
2013-03-13 07:38:00,42.6,12.6,30.06,NW,326,0.0,0.0,29,0.00,,,0.00,VWS V14.01,2013-03-13 14:38:00,
2013-03-13 07:43:00,42.6,12.6,30.06,NW,326,0.0,0.0,29,0.00,,,0.00,VWS V14.01,2013-03-13 14:43:00,
2013-03-13 07:49:00,42.6,12.6,30.06,NW,326,0.0,0.0,29,0.00,,,0.00,VWS V14.01,2013-03-13 14:49:00,
2013-03-13 07:54:00,42.6,12.6,30.06,NW,324,3.1,3.6,29,0.00,,,0.00,VWS V14.01,2013-03-13 14:54:00,
2013-03-13 07:59:00,42.6,12.6,30.06,NW,324,0.0,3.6,29,0.00,,,0.00,VWS V14.01,2013-03-13 14:59:00,
2013-03-13 08:04:00,43.0,12.1,30.06,NW,322,2.7,2.7,28,0.00,,,0.00,VWS V14.01,2013-03-13 15:04:00,
2013-03-13 08:10:00,42.6,12.6,30.06,NW,322,0.0,0.0,29,0.00,,,0.00,VWS V14.01,2013-03-13 15:10:00,
2013-03-13 08:15:00,43.0,12.1,30.06,NW,322,0.0,0.0,28,0.00,,,0.00,VWS V14.01,2013-03-13 15:15:00,
2013-03-13 08:22:00,43.3,12.4,30.06,NW,322,0.0,0.0,28,0.00,,,0.00,VWS V14.01,2013-03-13 15:22:00,
2013-03-13 08:27:00,43.5,12.6,30.06,NW,322,0.0,0.0,28,0.00,,,0.00,VWS V14.01,2013-03-13 15:27:00,
2013-03-13 08:32:00,43.9,12.9,30.06,NW,322,0.0,0.0,28,0.00,,,0.00,VWS V14.01,2013-03-13 15:32:00,
2013-03-13 08:38:00,43.9,12.9,30.06,NW,322,0.0,0.0,28,0.00,,,0.00,VWS V14.01,2013-03-13 15:38:00,
2013-03-13 08:43:00,44.6,13.5,30.06,NW,322,0.0,0.0,28,0.00,,,0.00,VWS V14.01,2013-03-13 15:43:00,
2013-03-13 08:49:00,44.8,13.7,30.06,NW,322,0.0,0.0,28,0.00,,,0.00,VWS V14.01,2013-03-13 15:49:00,
2013-03-13 08:54:00,45.0,13.8,30.09,NW,322,0.0,0.0,28,0.00,,,0.00,VWS V14.01,2013-03-13 15:54:00,
2013-03-13 08:59:00,45.5,14.3,30.09,NW,322,0.0,0.0,28,0.00,,,0.00,VWS V14.01,2013-03-13 15:59:00,
2013-03-13 09:05:00,45.7,14.5,30.09,NW,322,0.0,0.0,28,0.00,,,0.00,VWS V14.01,2013-03-13 16:05:00,
2013-03-13 09:10:00,46.2,14.9,30.09,SW,214,5.8,5.8,28,0.00,,,0.00,VWS V14.01,2013-03-13 16:10:00,
2013-03-13 09:15:00,46.4,14.2,30.09,WNW,303,0.0,0.0,27,0.00,,,0.00,VWS V14.01,2013-03-13 16:15:00,
2013-03-13 09:21:00,46.6,14.4,30.09,SSW,204,3.1,4.0,27,0.00,,,0.00,VWS V14.01,2013-03-13 16:21:00,
2013-03-13 09:26:00,46.8,14.6,30.09,West,266,0.0,0.0,27,0.00,,,0.00,VWS V14.01,2013-03-13 16:26:00,
2013-03-13 09:32:00,46.9,14.7,30.09,West,266,0.0,0.0,27,0.00,,,0.00,VWS V14.01,2013-03-13 16:32:00,
2013-03-13 09:37:00,47.5,15.2,30.09,South,186,4.0,4.0,27,0.00,,,0.00,VWS V14.01,2013-03-13 16:37:00,
2013-03-13 09:42:00,48.0,15.6,30.09,SW,225,6.3,6.3,27,0.00,,,0.00,VWS V14.01,2013-03-13 16:42:00,
2013-03-13 09:48:00,48.4,16.0,30.09,SSW,206,5.4,5.4,27,0.00,,,0.00,VWS V14.01,2013-03-13 16:48:00,
2013-03-13 09:53:00,48.9,16.4,30.09,SW,225,5.8,5.8,27,0.00,,,0.00,VWS V14.01,2013-03-13 16:53:00,
2013-03-13 09:58:00,49.1,16.6,30.09,SSW,206,2.7,2.7,27,0.00,,,0.00,VWS V14.01,2013-03-13 16:58:00,
2013-03-13 10:04:00,49.5,16.9,30.09,West,264,0.0,0.0,27,0.00,,,0.00,VWS V14.01,2013-03-13 17:04:00,
2013-03-13 10:10:00,49.5,16.9,30.09,SW,221,5.8,5.8,27,0.00,,,0.00,VWS V14.01,2013-03-13 17:10:00,
2013-03-13 10:16:00,49.8,17.2,30.09,SW,223,8.1,8.1,27,0.00,,,0.00,VWS V14.01,2013-03-13 17:16:00,
2013-03-13 10:21:00,49.8,17.2,30.09,SW,226,8.3,8.3,27,0.00,,,0.00,VWS V14.01,2013-03-13 17:21:00,
2013-03-13 10:26:00,50.2,17.5,30.09,SSW,203,8.3,8.3,27,0.00,,,0.00,VWS V14.01,2013-03-13 17:26:00,
2013-03-13 10:32:00,50.4,17.7,30.09,SSW,211,5.8,8.7,27,0.00,,,0.00,VWS V14.01,2013-03-13 17:32:00,
2013-03-13 10:37:00,50.2,17.5,30.09,WSW,240,6.3,6.3,27,0.00,,,0.00,VWS V14.01,2013-03-13 17:37:00,
2013-03-13 10:43:00,51.1,18.3,30.09,SSW,200,7.6,7.6,27,0.00,,,0.00,VWS V14.01,2013-03-13 17:43:00,
2013-03-13 10:48:00,51.1,18.3,30.09,SW,222,5.4,5.4,27,0.00,,,0.00,VWS V14.01,2013-03-13 17:48:00,
2013-03-13 10:54:00,50.9,17.2,30.09,SW,219,8.7,8.7,26,0.00,,,0.00,VWS V14.01,2013-03-13 17:54:00,
2013-03-13 10:59:00,50.9,17.2,30.09,WSW,245,6.3,6.3,26,0.00,,,0.00,VWS V14.01,2013-03-13 17:59:00,
2013-03-13 11:05:00,51.1,17.4,30.09,SW,226,3.6,3.6,26,0.00,,,0.00,VWS V14.01,2013-03-13 18:05:00,
2013-03-13 11:10:00,51.1,18.3,30.09,West,278,7.6,7.6,27,0.00,,,0.00,VWS V14.01,2013-03-13 18:10:00,
2013-03-13 11:15:00,51.3,17.6,30.09,SW,220,5.4,5.4,26,0.00,,,0.00,VWS V14.01,2013-03-13 18:15:00,
2013-03-13 11:21:00,50.2,16.6,30.09,SSW,211,4.9,4.9,26,0.00,,,0.00,VWS V14.01,2013-03-13 18:21:00,
2013-03-13 11:27:00,50.7,17.1,30.09,SW,222,7.6,7.6,26,0.00,,,0.00,VWS V14.01,2013-03-13 18:27:00,
2013-03-13 11:33:00,51.3,18.4,30.09,WSW,245,5.4,8.1,27,0.00,,,0.00,VWS V14.01,2013-03-13 18:33:00,
2013-03-13 11:38:00,52.3,18.5,30.09,WSW,245,5.4,5.4,26,0.00,,,0.00,VWS V14.01,2013-03-13 18:38:00,
2013-03-13 11:44:00,51.4,17.7,30.09,SW,215,7.6,8.1,26,0.00,,,0.00,VWS V14.01,2013-03-13 18:44:00,
2013-03-13 11:49:00,51.4,17.7,30.09,SW,225,5.8,5.8,26,0.00,,,0.00,VWS V14.01,2013-03-13 18:49:00,
2013-03-13 11:55:00,51.6,17.9,30.09,SW,220,3.6,12.3,26,0.00,,,0.00,VWS V14.01,2013-03-13 18:55:00,
2013-03-13 12:01:00,52.3,18.5,30.09,SW,216,6.3,8.1,26,0.00,,,0.00,VWS V14.01,2013-03-13 19:01:00,
2013-03-13 12:07:00,52.3,18.5,30.09,SW,224,8.1,8.1,26,0.00,,,0.00,VWS V14.01,2013-03-13 19:07:00,
2013-03-13 12:12:00,50.9,17.2,30.09,SW,226,5.4,5.4,26,0.00,,,0.00,VWS V14.01,2013-03-13 19:12:00,
2013-03-13 12:18:00,51.1,17.4,30.09,SW,221,6.3,10.5,26,0.00,,,0.00,VWS V14.01,2013-03-13 19:18:00,
2013-03-13 12:24:00,50.7,17.1,30.09,SW,221,8.3,8.3,26,0.00,,,0.00,VWS V14.01,2013-03-13 19:24:00,
2013-03-13 12:29:00,50.7,17.1,30.09,SW,218,7.6,8.7,26,0.00,,,0.00,VWS V14.01,2013-03-13 19:29:00,
2013-03-13 12:34:00,51.6,17.9,30.09,SW,217,8.3,8.3,26,0.00,,,0.00,VWS V14.01,2013-03-13 19:34:00,
2013-03-13 12:40:00,50.9,17.2,30.09,SW,236,6.3,8.7,26,0.00,,,0.00,VWS V14.01,2013-03-13 19:40:00,
2013-03-13 12:45:00,50.5,17.0,30.09,WSW,246,6.3,6.3,26,0.00,,,0.00,VWS V14.01,2013-03-13 19:45:00,
2013-03-13 12:51:00,51.3,17.6,30.09,SSW,208,6.3,6.3,26,0.00,,,0.00,VWS V14.01,2013-03-13 19:51:00,
2013-03-13 12:56:00,50.9,17.2,30.09,SW,230,6.3,6.3,26,0.00,,,0.00,VWS V14.01,2013-03-13 19:56:00,
2013-03-13 13:01:00,51.1,17.4,30.09,SW,235,8.7,8.7,26,0.00,,,0.00,VWS V14.01,2013-03-13 20:01:00,
2013-03-13 13:07:00,50.4,16.8,30.09,SW,231,6.3,6.3,26,0.00,,,0.00,VWS V14.01,2013-03-13 20:07:00,
2013-03-13 13:13:00,50.7,17.1,30.09,SW,216,3.1,3.1,26,0.00,,,0.00,VWS V14.01,2013-03-13 20:13:00,
2013-03-13 13:19:00,51.1,17.4,30.09,SW,220,8.7,10.1,26,0.00,,,0.00,VWS V14.01,2013-03-13 20:19:00,
2013-03-13 13:24:00,50.5,17.0,30.09,SW,222,8.1,8.1,26,0.00,,,0.00,VWS V14.01,2013-03-13 20:24:00,
2013-03-13 13:30:00,50.5,17.0,30.09,SSW,207,5.8,6.3,26,0.00,,,0.00,VWS V14.01,2013-03-13 20:30:00,
2013-03-13 13:35:00,50.4,16.8,30.09,SW,225,4.9,4.9,26,0.00,,,0.00,VWS V14.01,2013-03-13 20:35:00,
2013-03-13 13:41:00,50.4,16.8,30.09,SSW,199,5.4,5.4,26,0.00,,,0.00,VWS V14.01,2013-03-13 20:41:00,
2013-03-13 13:46:00,51.1,17.4,30.09,SW,224,8.1,8.1,26,0.00,,,0.00,VWS V14.01,2013-03-13 20:46:00,
2013-03-13 13:53:00,50.9,17.2,30.09,SSW,211,7.6,7.6,26,0.00,,,0.00,VWS V14.01,2013-03-13 20:53:00,
2013-03-13 13:58:00,50.5,17.0,30.09,SW,235,5.8,5.8,26,0.00,,,0.00,VWS V14.01,2013-03-13 20:58:00,
2013-03-13 14:04:00,50.9,17.2,30.09,South,188,5.4,5.4,26,0.00,,,0.00,VWS V14.01,2013-03-13 21:04:00,
2013-03-13 14:09:00,51.4,18.6,30.09,SW,218,5.8,5.8,27,0.00,,,0.00,VWS V14.01,2013-03-13 21:09:00,
2013-03-13 14:15:00,52.0,18.2,30.09,SW,217,4.9,4.9,26,0.00,,,0.00,VWS V14.01,2013-03-13 21:15:00,
2013-03-13 14:20:00,52.3,18.5,30.09,SW,226,5.8,5.8,26,0.00,,,0.00,VWS V14.01,2013-03-13 21:20:00,
2013-03-13 14:26:00,52.3,18.5,30.09,SW,219,8.3,8.3,26,0.00,,,0.00,VWS V14.01,2013-03-13 21:26:00,
2013-03-13 14:32:00,51.1,17.4,30.09,WSW,239,0.0,0.0,26,0.00,,,0.00,VWS V14.01,2013-03-13 21:32:00,
2013-03-13 14:37:00,50.0,16.5,30.09,WSW,258,6.3,6.3,26,0.00,,,0.00,VWS V14.01,2013-03-13 21:37:00,
2013-03-13 14:43:00,51.8,18.0,30.09,SW,235,5.8,5.8,26,0.00,,,0.00,VWS V14.01,2013-03-13 21:43:00,
2013-03-13 14:49:00,51.3,17.6,30.09,SSW,207,8.7,8.7,26,0.00,,,0.00,VWS V14.01,2013-03-13 21:49:00,
2013-03-13 14:54:00,50.5,17.0,30.09,WSW,245,3.1,5.4,26,0.00,,,0.00,VWS V14.01,2013-03-13 21:54:00,
2013-03-13 15:00:00,51.4,18.6,30.09,SSW,207,5.4,5.4,27,0.00,,,0.00,VWS V14.01,2013-03-13 22:00:00,
2013-03-13 15:05:00,52.0,18.2,30.09,SW,225,3.6,8.7,26,0.00,,,0.00,VWS V14.01,2013-03-13 22:05:00,
2013-03-13 15:10:00,52.5,18.6,30.09,West,265,5.4,11.0,26,0.00,,,0.00,VWS V14.01,2013-03-13 22:10:00,
2013-03-13 15:17:00,52.3,18.5,30.09,SW,236,8.3,8.3,26,0.00,,,0.00,VWS V14.01,2013-03-13 22:17:00,
2013-03-13 15:23:00,52.3,18.5,30.09,SW,218,5.8,5.8,26,0.00,,,0.00,VWS V14.01,2013-03-13 22:23:00,
2013-03-13 15:29:00,50.9,18.1,30.09,WSW,248,3.6,6.3,27,0.00,,,0.00,VWS V14.01,2013-03-13 22:29:00,
2013-03-13 15:34:00,50.2,17.5,30.09,South,187,3.1,3.1,27,0.00,,,0.00,VWS V14.01,2013-03-13 22:34:00,
2013-03-13 15:39:00,50.0,17.4,30.09,West,272,0.0,0.0,27,0.00,,,0.00,VWS V14.01,2013-03-13 22:39:00,
2013-03-13 15:44:00,50.0,17.4,30.09,SSW,204,6.7,6.7,27,0.00,,,0.00,VWS V14.01,2013-03-13 22:44:00,
2013-03-13 15:50:00,49.8,17.2,30.09,SW,224,4.0,4.0,27,0.00,,,0.00,VWS V14.01,2013-03-13 22:50:00,
2013-03-13 15:55:00,49.8,17.2,30.09,WSW,246,0.0,0.0,27,0.00,,,0.00,VWS V14.01,2013-03-13 22:55:00,
2013-03-13 16:00:00,49.5,16.9,30.09,SW,232,0.0,5.8,27,0.00,,,0.00,VWS V14.01,2013-03-13 23:00:00,
2013-03-13 16:06:00,49.5,16.9,30.09,SW,236,0.0,3.1,27,0.00,,,0.00,VWS V14.01,2013-03-13 23:06:00,
2013-03-13 16:12:00,49.5,16.9,30.09,SW,236,0.0,0.0,27,0.00,,,0.00,VWS V14.01,2013-03-13 23:12:00,
2013-03-13 16:18:00,49.5,16.9,30.09,SW,233,0.0,0.0,27,0.00,,,0.00,VWS V14.01,2013-03-13 23:18:00,
2013-03-13 16:24:00,49.5,16.9,30.09,SW,234,3.6,3.6,27,0.00,,,0.00,VWS V14.01,2013-03-13 23:24:00,
2013-03-13 16:29:00,49.8,17.2,30.09,SW,221,2.7,2.7,27,0.00,,,0.00,VWS V14.01,2013-03-13 23:29:00,
2013-03-13 16:34:00,50.0,17.4,30.09,SW,232,3.1,3.1,27,0.00,,,0.00,VWS V14.01,2013-03-13 23:34:00,
2013-03-13 16:40:00,50.0,17.4,30.09,SW,230,0.0,0.0,27,0.00,,,0.00,VWS V14.01,2013-03-13 23:40:00,
2013-03-13 16:45:00,50.7,18.0,30.09,SSW,202,3.6,3.6,27,0.00,,,0.00,VWS V14.01,2013-03-13 23:45:00,
2013-03-13 16:51:00,50.9,18.1,30.09,SW,230,5.4,5.4,27,0.00,,,0.00,VWS V14.01,2013-03-13 23:51:00,
2013-03-13 16:57:00,51.1,18.3,30.06,SW,230,4.0,4.0,27,0.00,,,0.00,VWS V14.01,2013-03-13 23:57:00,
2013-03-13 17:02:00,51.3,18.4,30.06,SSW,209,4.9,4.9,27,0.00,,,0.00,VWS V14.01,2013-03-14 00:02:00,
2013-03-13 17:07:00,51.3,18.4,30.06,WSW,238,0.0,3.6,27,0.00,,,0.00,VWS V14.01,2013-03-14 00:07:00,
2013-03-13 17:12:00,50.9,18.1,30.06,South,185,2.7,2.7,27,0.00,,,0.00,VWS V14.01,2013-03-14 00:12:00,
2013-03-13 17:18:00,50.5,17.8,30.06,SW,227,0.0,4.0,27,0.00,,,0.00,VWS V14.01,2013-03-14 00:18:00,
2013-03-13 17:23:00,50.2,17.5,30.06,SSW,212,5.8,5.8,27,0.00,,,0.00,VWS V14.01,2013-03-14 00:23:00,
2013-03-13 17:28:00,49.8,17.2,30.06,SW,233,10.5,10.5,27,0.00,,,0.00,VWS V14.01,2013-03-14 00:28:00,
2013-03-13 17:33:00,49.5,16.9,30.06,SW,223,0.0,0.0,27,0.00,,,0.00,VWS V14.01,2013-03-14 00:33:00,
2013-03-13 17:38:00,49.3,16.7,30.06,SW,222,3.1,3.1,27,0.00,,,0.00,VWS V14.01,2013-03-14 00:38:00,
2013-03-13 17:43:00,49.1,16.6,30.06,SSW,211,5.4,5.4,27,0.00,,,0.00,VWS V14.01,2013-03-14 00:43:00,
2013-03-13 17:49:00,48.7,16.3,30.06,SW,214,8.3,8.3,27,0.00,,,0.00,VWS V14.01,2013-03-14 00:49:00,
2013-03-13 17:55:00,48.6,16.1,30.06,SW,217,8.3,8.3,27,0.00,,,0.00,VWS V14.01,2013-03-14 00:55:00,
2013-03-13 18:00:00,48.6,16.1,30.06,SSW,213,6.3,6.3,27,0.00,,,0.00,VWS V14.01,2013-03-14 01:00:00,
2013-03-13 18:05:00,48.4,16.0,30.06,SW,233,6.3,8.3,27,0.00,,,0.00,VWS V14.01,2013-03-14 01:05:00,
2013-03-13 18:11:00,48.0,15.6,30.06,SW,225,7.2,7.2,27,0.00,,,0.00,VWS V14.01,2013-03-14 01:11:00,
2013-03-13 18:16:00,47.8,15.5,30.06,SW,222,7.6,7.6,27,0.00,,,0.00,VWS V14.01,2013-03-14 01:16:00,
2013-03-13 18:22:00,47.8,15.5,30.06,SSW,211,3.1,5.8,27,0.00,,,0.00,VWS V14.01,2013-03-14 01:22:00,
2013-03-13 18:27:00,48.0,15.6,30.06,SW,231,3.1,3.1,27,0.00,,,0.00,VWS V14.01,2013-03-14 01:27:00,
2013-03-13 18:33:00,47.8,15.5,30.06,SW,223,3.1,3.1,27,0.00,,,0.00,VWS V14.01,2013-03-14 01:33:00,
2013-03-13 18:39:00,47.7,15.3,30.06,SW,223,3.1,3.1,27,0.00,,,0.00,VWS V14.01,2013-03-14 01:39:00,
2013-03-13 18:45:00,47.5,15.2,30.06,SW,214,0.0,0.0,27,0.00,,,0.00,VWS V14.01,2013-03-14 01:45:00,
2013-03-13 18:51:00,47.5,15.2,30.06,SW,218,3.1,3.1,27,0.00,,,0.00,VWS V14.01,2013-03-14 01:51:00,
2013-03-13 18:56:00,47.3,15.0,30.06,SW,219,5.8,5.8,27,0.00,,,0.00,VWS V14.01,2013-03-14 01:56:00,
2013-03-13 19:02:00,47.1,14.9,30.06,SW,216,4.0,4.0,27,0.00,,,0.00,VWS V14.01,2013-03-14 02:02:00,
2013-03-13 19:08:00,46.9,14.7,30.06,SW,225,4.0,4.0,27,0.00,,,0.00,VWS V14.01,2013-03-14 02:08:00,
2013-03-13 19:13:00,46.6,14.4,30.06,SW,225,4.0,4.0,27,0.00,,,0.00,VWS V14.01,2013-03-14 02:13:00,
2013-03-13 19:19:00,46.6,14.4,30.06,SW,227,0.0,0.0,27,0.00,,,0.00,VWS V14.01,2013-03-14 02:19:00,
2013-03-13 19:24:00,46.6,14.4,30.06,SW,230,0.0,5.8,27,0.00,,,0.00,VWS V14.01,2013-03-14 02:24:00,
2013-03-13 19:29:00,46.6,14.4,30.06,SW,221,0.0,0.0,27,0.00,,,0.00,VWS V14.01,2013-03-14 02:29:00,
2013-03-13 19:34:00,46.4,14.2,30.06,SW,221,0.0,0.0,27,0.00,,,0.00,VWS V14.01,2013-03-14 02:34:00,
2013-03-13 19:40:00,45.3,14.1,30.06,West,260,5.8,5.8,28,0.00,,,0.00,VWS V14.01,2013-03-14 02:40:00,
2013-03-13 19:45:00,46.0,14.8,30.06,SW,233,3.1,3.1,28,0.00,,,0.00,VWS V14.01,2013-03-14 02:45:00,
2013-03-13 19:51:00,46.2,14.9,30.06,SW,223,5.8,5.8,28,0.00,,,0.00,VWS V14.01,2013-03-14 02:51:00,
2013-03-13 19:56:00,46.0,14.8,30.06,SW,232,2.7,3.1,28,0.00,,,0.00,VWS V14.01,2013-03-14 02:56:00,
2013-03-13 20:03:00,46.0,14.8,30.06,SW,219,0.0,4.0,28,0.00,,,0.00,VWS V14.01,2013-03-14 03:03:00,
2013-03-13 20:09:00,45.9,14.6,30.06,SW,217,5.8,5.8,28,0.00,,,0.00,VWS V14.01,2013-03-14 03:09:00,
2013-03-13 20:14:00,45.1,14.0,30.06,SW,224,0.0,0.0,28,0.00,,,0.00,VWS V14.01,2013-03-14 03:14:00,
2013-03-13 20:19:00,44.8,13.7,30.06,WSW,251,5.4,5.4,28,0.00,,,0.00,VWS V14.01,2013-03-14 03:19:00,
2013-03-13 20:24:00,44.2,13.2,30.06,SW,232,0.0,0.0,28,0.00,,,0.00,VWS V14.01,2013-03-14 03:24:00,
2013-03-13 20:29:00,44.1,13.1,30.06,SW,232,0.0,0.0,28,0.00,,,0.00,VWS V14.01,2013-03-14 03:29:00,
2013-03-13 20:34:00,43.5,12.6,30.06,SW,232,0.0,0.0,28,0.00,,,0.00,VWS V14.01,2013-03-14 03:34:00,
2013-03-13 20:39:00,43.5,12.6,30.06,SW,225,0.0,0.0,28,0.00,,,0.00,VWS V14.01,2013-03-14 03:39:00,
2013-03-13 20:45:00,43.5,12.6,30.06,SW,225,0.0,0.0,28,0.00,,,0.00,VWS V14.01,2013-03-14 03:45:00,
2013-03-13 20:50:00,43.5,12.6,30.06,SW,225,0.0,0.0,28,0.00,,,0.00,VWS V14.01,2013-03-14 03:50:00,
2013-03-13 20:55:00,43.5,12.6,30.06,SW,225,0.0,0.0,28,0.00,,,0.00,VWS V14.01,2013-03-14 03:55:00,
2013-03-13 21:00:00,43.5,12.6,30.06,SW,225,0.0,0.0,28,0.00,,,0.00,VWS V14.01,2013-03-14 04:00:00,
2013-03-13 21:01:00,43.3,12.4,30.06,SW,225,0.0,0.0,28,0.00,,,0.00,VWS V14.01,2013-03-14 04:01:00,
2013-03-13 21:07:00,43.3,12.4,30.06,SW,225,0.0,0.0,28,0.00,,,0.00,VWS V14.01,2013-03-14 04:07:00,
2013-03-13 21:12:00,43.5,13.4,30.06,SW,225,0.0,0.0,29,0.00,,,0.00,VWS V14.01,2013-03-14 04:12:00,
2013-03-13 21:18:00,43.3,13.2,30.06,SW,225,0.0,0.0,29,0.00,,,0.00,VWS V14.01,2013-03-14 04:18:00,
2013-03-13 21:24:00,43.2,13.1,30.06,SW,225,0.0,0.0,29,0.00,,,0.00,VWS V14.01,2013-03-14 04:24:00,
2013-03-13 21:29:00,43.2,13.1,30.06,SW,225,0.0,0.0,29,0.00,,,0.00,VWS V14.01,2013-03-14 04:29:00,
2013-03-13 21:35:00,43.2,13.1,30.06,SW,225,0.0,0.0,29,0.00,,,0.00,VWS V14.01,2013-03-14 04:35:00,
2013-03-13 21:40:00,43.2,13.1,30.06,SW,225,0.0,0.0,29,0.00,,,0.00,VWS V14.01,2013-03-14 04:40:00,
2013-03-13 21:45:00,43.0,12.9,30.06,SW,225,0.0,0.0,29,0.00,,,0.00,VWS V14.01,2013-03-14 04:45:00,
2013-03-13 21:50:00,43.0,12.9,30.06,SW,225,0.0,0.0,29,0.00,,,0.00,VWS V14.01,2013-03-14 04:50:00,
2013-03-13 21:56:00,42.8,12.8,30.06,SW,225,0.0,0.0,29,0.00,,,0.00,VWS V14.01,2013-03-14 04:56:00,
2013-03-13 22:01:00,42.6,12.6,30.06,SW,225,0.0,0.0,29,0.00,,,0.00,VWS V14.01,2013-03-14 05:01:00,
2013-03-13 22:06:00,42.6,12.6,30.06,SW,225,0.0,0.0,29,0.00,,,0.00,VWS V14.01,2013-03-14 05:06:00,
2013-03-13 22:12:00,42.8,12.8,30.06,SW,225,0.0,0.0,29,0.00,,,0.00,VWS V14.01,2013-03-14 05:12:00,
2013-03-13 22:18:00,42.4,12.4,30.06,SW,225,0.0,0.0,29,0.00,,,0.00,VWS V14.01,2013-03-14 05:18:00,
2013-03-13 22:23:00,42.3,12.3,30.06,SW,225,0.0,0.0,29,0.00,,,0.00,VWS V14.01,2013-03-14 05:23:00,
2013-03-13 22:28:00,42.3,12.3,30.06,SW,225,0.0,0.0,29,0.00,,,0.00,VWS V14.01,2013-03-14 05:28:00,
2013-03-13 22:34:00,42.3,12.3,30.06,SW,225,0.0,0.0,29,0.00,,,0.00,VWS V14.01,2013-03-14 05:34:00,
2013-03-13 22:39:00,42.1,12.1,30.06,SW,225,0.0,0.0,29,0.00,,,0.00,VWS V14.01,2013-03-14 05:39:00,
2013-03-13 22:45:00,42.3,12.3,30.06,SW,225,0.0,0.0,29,0.00,,,0.00,VWS V14.01,2013-03-14 05:45:00,
2013-03-13 22:50:00,42.3,12.3,30.06,SW,225,0.0,0.0,29,0.00,,,0.00,VWS V14.01,2013-03-14 05:50:00,
2013-03-13 22:55:00,42.3,12.3,30.06,SW,225,0.0,0.0,29,0.00,,,0.00,VWS V14.01,2013-03-14 05:55:00,
2013-03-13 23:00:00,42.3,12.3,30.06,SW,225,0.0,0.0,29,0.00,,,0.00,VWS V14.01,2013-03-14 06:00:00,
2013-03-13 23:06:00,42.1,12.1,30.06,SW,225,0.0,0.0,29,0.00,,,0.00,VWS V14.01,2013-03-14 06:06:00,
2013-03-13 23:11:00,41.9,12.0,30.06,SW,225,0.0,0.0,29,0.00,,,0.00,VWS V14.01,2013-03-14 06:11:00,
2013-03-13 23:17:00,41.7,11.8,30.06,SW,225,0.0,0.0,29,0.00,,,0.00,VWS V14.01,2013-03-14 06:17:00,
2013-03-13 23:22:00,41.9,12.0,30.06,SW,225,0.0,0.0,29,0.00,,,0.00,VWS V14.01,2013-03-14 06:22:00,
2013-03-13 23:28:00,41.5,11.7,30.06,SW,225,0.0,0.0,29,0.00,,,0.00,VWS V14.01,2013-03-14 06:28:00,
2013-03-13 23:34:00,41.4,11.5,30.06,SW,225,0.0,0.0,29,0.00,,,0.00,VWS V14.01,2013-03-14 06:34:00,
2013-03-13 23:39:00,41.4,11.5,30.06,SW,225,0.0,0.0,29,0.00,,,0.00,VWS V14.01,2013-03-14 06:39:00,
2013-03-13 23:44:00,41.5,11.7,30.06,SW,225,0.0,0.0,29,0.00,,,0.00,VWS V14.01,2013-03-14 06:44:00,
2013-03-13 23:50:00,41.7,11.8,30.06,SW,225,0.0,0.0,29,0.00,,,0.00,VWS V14.01,2013-03-14 06:50:00,
2013-03-13 23:57:00,41.5,11.7,30.06,SW,225,0.0,0.0,29,0.00,,,0.00,VWS V14.01,2013-03-14 06:57:00,